User: anonymous   Login
Location: Observatory
(52.1446°N, 0.4624°W)
Time: 19:37:12
(UTC+00:00)
Language:

ISS - Orbit

View from above orbital plane
View from above orbital plane
View from above satellite
View from above satellite

Ground track
Ground track

The orbit data is extracted from the following two-line orbital elements,

1 25544U 98067A   22019.67462963 -.00034789  00000-0 -61394-3 0  9996
2 25544  51.6438 352.0487 0006533  41.0200 301.6554 15.49528675322140
Epoch (UTC): 19 January 2022 16:11:28
Eccentricity: 0.0006533
inclination: 51.6438°
perigee height: 413 km
apogee height: 422 km
right ascension of ascending node: 352.0487°
argument of perigee: 41.0200°
revolutions per day: 15.49528675
mean anomaly at epoch: 301.6554°
orbit number at epoch: 32214

The dashed part of the orbit path shows where the satellite is in the earth's shadow,  

DLR